Torna al catalogo

STARLINK-6054

AttivoComunicazioniVLEO
NORAD 56465·PAYLOAD·🇺🇸 United States

Lanciato May 10, 2023 da Vandenberg Space Force Base

Loading…

Prossimi Passaggi (prossime 24 ore)

TLE

AggiornatoSource: CelesTrak SupGP

Epoca: Sep 15, 2026, 02:14 UTC

1 56465C 23064T   26258.09354167  .00066716  00000+0  55893-2 0  2584
2 56465  70.0017 346.7456 0003598 265.7220 198.0307 14.98308090    18

Traccia STARLINK-6054 in tempo reale con AllMySat

Download on the App Store